Weather Roundup
Issued by NWS Chicago, IL

Home | Current Version | Previous Version | Graphics & Text | Print | Product List | Glossary On
Versions: 1 2 3 4 5 6 7 8 9 10 11 12 13 14 15 16 17 18 19 20 21 22 23 24 25 26 27 28 29 30 31 32 33 34 35 36 37 38 39 40 41 42 43 44 45 46 47 48 49 50
000
NZUS59 KLOT 241558
HRRLOT

CHICAGO AREA WEATHER ROUNDUP
NATIONAL WEATHER SERVICE CHICAGO/ROMEOVILLE IL
1000 AM CST MON NOV 24 2014

NOTE: "FAIR" INDICATES FEW OR NO CLOUDS BELOW 12,000 FEET WITH NO
SIGNIFICANT WEATHER AND/OR OBSTRUCTIONS TO VISIBILITY.

* THESE STATIONS ARE NOT UNDER NWS QUALITY CONTROL. THEY ALSO MAY NOT
  REPORT WEATHER SUCH AS PRECIPITATION OR FOG.

ILZ005-006-012>014-019>023-241700-
NORTHEAST ILLINOIS

CITY           SKY/WX    TMP DP  RH WIND       PRES   REMARKS
OHARE          LGT RAIN  38  35  89 W22G35    29.19R
MIDWAY         NOT AVBL
AURORA         SNOW      34  30  85 W22G37    29.26R VSB 1/2 WCI  22
WAUKEGAN       NOT AVBL
DUPAGE AIRPORT FLURRIES  36  33  89 W21G29    29.22R
WHEELING       LGT RAIN  39  35  86 W21G26    29.19R FOG
NORTHERLY IS     N/A     40  36  86 W16         N/A
$$

WIZ051-052-058>065-066-070>072-241700-
SOUTHEAST WISCONSIN

CITY           SKY/WX    TMP DP  RH WIND       PRES   REMARKS
MILWAUKEE      LGT RAIN  42  38  85 W13G21    29.11R
KENOSHA*       LGT RAIN  43  39  87 W20       29.13R FOG
WAUKESHA       DRIZZLE   37  37 100 W12G21    29.12R FOG
$$

INZ001>003-010>013-019-020-241700-
NORTHWEST INDIANA

CITY           SKY/WX    TMP DP  RH WIND       PRES   REMARKS
GARY*          RAIN      39  37  93 W25G41    29.22R
MICHIGAN CITY* NOT AVBL
RENSSELAER*    NOT AVBL
VALPARAISO     LGT RAIN  38  38 100 W28G40    29.23R
$$

LMZ740>746-241700-
SOUTHERN LAKE MICHIGAN

STATION/POSITION TIME  SKY/WX   TEMP WIND        PRES    VSBY
                                AIR  DIR/SP/G
                 (UTC)          (F)  (DEG/KT/KT) (MB)    (MI)
HARRISON CRIB    1500            43  250/ 28/ 35   N/A
BURNHAM HARBOR   1500            42  250/ 16/ 17   N/A
CALUMET HARBOR   1500            39  240/ 15/ 23  987.3R
BURNS HARBOR     NOT AVBL
MICHIGAN CITY    1500            43  220/ 29/ 34   N/A
$$

ABBREVIATIONS USED IN REMARKS
   TC - TEMPERATURE IN CELSIUS
  WCI - WIND CHILL INDEX
   HX - HEAT INDEX
  VSB - VISIBILITY
$$


USA.gov is the U.S. government's official web portal to all federal, state and local government web resources and services.